This is the latest recevied weather packets stored in our database for station/object F4ELU-13. If no packets are shown the sender has not sent any weather packets the latest 10 day(s).
| Time | Temp. | Humidity | Pressure | Rain* | Wind** | Luminosity | Snow |
|---|---|---|---|---|---|---|---|
| 1777743363 | 20° C | 43% | 1015.3 hPa | 0 mm | - | - | - |
| 1777742823 | 20.56° C | 43% | 1015.3 hPa | 0 mm | - | - | - |
| 1777742283 | 20.56° C | 42% | 1015.4 hPa | 0 mm | - | - | - |
| 1777741743 | 20.56° C | 42% | 1015.5 hPa | 0 mm | - | - | - |
| 1777741203 | 21.11° C | 46% | 1015.5 hPa | 0 mm | - | - | - |
| 1777740843 | 21.11° C | 48% | 1015.6 hPa | 0 mm | - | - | - |
| 1777740303 | 21.11° C | 45% | 1015.6 hPa | 0 mm | - | - | - |
| 1777739763 | 21.67° C | 43% | 1015.6 hPa | 0 mm | - | - | - |
| 1777739223 | 21.67° C | 42% | 1015.6 hPa | 0 mm | - | - | - |
| 1777738683 | 22.22° C | 41% | 1015.7 hPa | 0 mm | - | - | - |
| 1777738143 | 21.67° C | 43% | 1015.8 hPa | 0 mm | - | - | - |
| 1777737603 | 22.22° C | 41% | 1015.7 hPa | 0 mm | - | - | - |
| 1777737243 | 22.22° C | 43% | 1015.9 hPa | 0 mm | - | - | - |
| 1777736703 | 22.22° C | 41% | 1015.9 hPa | 0 mm | - | - | - |
| 1777736163 | 22.22° C | 42% | 1016 hPa | 0 mm | - | - | - |
| 1777735623 | 22.78° C | 43% | 1016 hPa | 0 mm | - | - | - |
| 1777735083 | 22.78° C | 41% | 1016.1 hPa | 0 mm | - | - | - |
| 1777734543 | 22.78° C | 41% | 1016.3 hPa | 0 mm | - | - | - |
| 1777734003 | 23.33° C | 40% | 1016.3 hPa | 0 mm | - | - | - |
| 1777733643 | 23.33° C | 40% | 1016.4 hPa | 0 mm | - | - | - |
| 1777733104 | 23.89° C | 40% | 1016.5 hPa | 0 mm | - | - | - |
| 1777732563 | 23.89° C | 39% | 1016.7 hPa | 0 mm | - | - | - |
| 1777732023 | 23.33° C | 39% | 1016.8 hPa | 0 mm | - | - | - |
| 1777731483 | 23.89° C | 41% | 1017 hPa | 0 mm | - | - | - |
| 1777730943 | 23.89° C | 41% | 1017 hPa | 0 mm | - | - | - |
* Rain latest hour (hover to see other rain measurements)
** Current wind speed in m/s (hover to see current wind gust speed)